Weather home | Your neighborhood | Marine | Radar | Hurricane | Almanac

Daily weather history


Statistical History for Saturday, February 18, 2017

Tampa Knight Airport, FL


  Actual Average (KTPA) Record (KTPA)
Temperature
Mean Temperature -  
Max Temperature 71 °F 84 °F (1990)
Min Temperature 54 °F 28 °F (1900)
Growing Degree Days 15 (Base - )  
Moisture
Dew Point   
Average Humidity    
Maximum Humidity    
Minimum Humidity    
Precipitation
Precipitation - - ()
Wind
Wind Speed   
Max Wind Speed   
Max Gust Speed   
Visibility   
Events   
Averages and records for this station are not official NWS values.
Key: T is trace of precipitation, MM is missing value
Source: NWS Daily Summary
Seasonal Weather Averages
Time(EST)TemperatureDew PointHumidity Sea Level Pressure Visibility Wind DirectionWind SpeedGust SpeedPrecipitationEventsConditions
12:15 AM 57.2 °F 51.8 °F 82% 30.04 in 10.0 miles NE 5.8 mph - N/A   Mostly Cloudy
12:35 AM 59.0 °F 51.8 °F 77% 30.03 in 10.0 miles ENE 5.8 mph - N/A   Scattered Clouds
12:55 AM 59.0 °F 51.8 °F 77% 30.03 in 10.0 miles East 6.9 mph - N/A   Scattered Clouds
1:15 AM 59.0 °F 51.8 °F 77% 30.04 in 10.0 miles ENE 5.8 mph - N/A   Clear
1:35 AM 59.0 °F 51.8 °F 77% 30.05 in 10.0 miles East 3.5 mph - N/A   Clear
1:55 AM 59.0 °F 51.8 °F 77% 30.04 in 10.0 miles East 4.6 mph - N/A   Clear
2:15 AM 59.0 °F 51.8 °F 77% 30.04 in 10.0 miles East 3.5 mph - N/A   Clear
2:35 AM 57.2 °F 50.0 °F 77% 30.04 in 10.0 miles NE 4.6 mph - N/A   Clear
2:55 AM 57.2 °F 51.8 °F 82% 30.02 in 10.0 miles ENE 8.1 mph - N/A   Clear
3:15 AM 59.0 °F 50.0 °F 72% 30.02 in 10.0 miles ENE 6.9 mph - N/A   Clear
3:35 AM 59.0 °F 50.0 °F 72% 30.01 in 10.0 miles ENE 8.1 mph - N/A   Clear
3:55 AM 59.0 °F 50.0 °F 72% 30.01 in 10.0 miles NE 8.1 mph - N/A   Clear
4:15 AM 59.0 °F 50.0 °F 72% 30.00 in 10.0 miles ENE 6.9 mph - N/A   Scattered Clouds
4:35 AM 57.2 °F 50.0 °F 77% 30.01 in 10.0 miles NE 3.5 mph - N/A   Clear
4:55 AM 55.4 °F 48.2 °F 77% 30.01 in 10.0 miles East 3.5 mph - N/A   Scattered Clouds
5:15 AM 55.4 °F 48.2 °F 77% 30.01 in 10.0 miles ENE 4.6 mph - N/A   Scattered Clouds
5:35 AM 59.0 °F 50.0 °F 72% 30.01 in 10.0 miles NE 4.6 mph - N/A   Overcast
5:55 AM 59.0 °F 48.2 °F 67% 30.02 in 10.0 miles ENE 4.6 mph - N/A   Overcast
6:15 AM 59.0 °F 48.2 °F 67% 30.02 in 10.0 miles ENE 4.6 mph - N/A   Mostly Cloudy
6:35 AM 59.0 °F 48.2 °F 67% 30.02 in 10.0 miles East 4.6 mph - N/A   Scattered Clouds
6:55 AM 59.0 °F 50.0 °F 72% 30.02 in 10.0 miles ENE 3.5 mph - N/A   Clear
7:15 AM 59.0 °F 50.0 °F 72% 30.04 in 10.0 miles NE 3.5 mph - N/A   Clear
7:35 AM 60.8 °F 50.0 °F 68% 30.03 in 10.0 miles East 4.6 mph - N/A   Scattered Clouds
7:55 AM 60.8 °F 51.8 °F 72% 30.03 in 10.0 miles North - - N/A   Mostly Cloudy
8:15 AM 62.6 °F 51.8 °F 68% 30.03 in 10.0 miles East 4.6 mph - N/A   Mostly Cloudy
8:35 AM 64.4 °F 55.4 °F 73% 30.04 in 10.0 miles East 3.5 mph - N/A   Clear
8:55 AM 68.0 °F 57.2 °F 68% 30.04 in 10.0 miles SE 8.1 mph - N/A   Clear
9:15 AM 69.8 °F 59.0 °F 68% 30.04 in 10.0 miles SSE 10.4 mph - N/A   Scattered Clouds
9:35 AM 71.6 °F 60.8 °F 69% 30.04 in 10.0 miles SSE 15.0 mph 19.6 mph N/A   Scattered Clouds
9:55 AM 71.6 °F 62.6 °F 73% 30.03 in 10.0 miles SSE 13.8 mph - N/A   Clear
10:15 AM 73.4 °F 62.6 °F 69% 30.05 in 10.0 miles South 10.4 mph 17.3 mph N/A   Clear
10:35 AM 73.4 °F 64.4 °F 73% 30.05 in 10.0 miles South 12.7 mph 16.1 mph N/A   Clear
10:55 AM 73.4 °F 64.4 °F 73% 30.05 in 10.0 miles SSW 11.5 mph - N/A   Clear
11:15 AM 73.4 °F 64.4 °F 73% 30.06 in 10.0 miles SSW 8.1 mph - N/A   Clear
11:35 AM 73.4 °F 62.6 °F 69% 30.06 in 10.0 miles SW 4.6 mph - N/A   Clear
11:55 AM 73.4 °F 62.6 °F 69% 30.04 in 10.0 miles South 3.5 mph - N/A   Clear
12:15 PM 73.4 °F 62.6 °F 69% 30.05 in 10.0 miles SW 3.5 mph - N/A   Mostly Cloudy
12:35 PM 75.2 °F 62.6 °F 65% 30.04 in 10.0 miles South 4.6 mph - N/A   Mostly Cloudy
12:55 PM 73.4 °F 62.6 °F 69% 30.01 in 10.0 miles Calm Calm - N/A   Scattered Clouds
1:15 PM 75.2 °F 62.6 °F 65% 30.02 in 10.0 miles WSW 3.5 mph - N/A   Mostly Cloudy
1:35 PM 71.6 °F 64.4 °F 78% 30.03 in 5.0 miles NW 5.8 mph - 0.03 in Rain Heavy Rain
1:55 PM 68.0 °F 64.4 °F 88% 30.03 in 3.0 miles NNW 11.5 mph 17.3 mph 0.14 in Rain Light Rain
2:15 PM 68.0 °F 64.4 °F 88% 30.02 in 10.0 miles North 4.6 mph - N/A   Light Drizzle
2:35 PM 68.0 °F 66.2 °F 94% 30.02 in 10.0 miles NE 4.6 mph - N/A Rain Light Rain
2:55 PM 68.0 °F 64.4 °F 88% 30.00 in 10.0 miles Calm Calm - N/A   Overcast
3:15 PM 68.0 °F 64.4 °F 88% 30.00 in 7.0 miles North 4.6 mph - 0.01 in Rain Light Rain
3:35 PM 68.0 °F 66.2 °F 94% 29.99 in 10.0 miles NE 4.6 mph - 0.01 in   Overcast
3:55 PM 68.0 °F 64.4 °F 88% 30.00 in 10.0 miles NE 3.5 mph - 0.01 in   Overcast
4:15 PM 68.0 °F 64.4 °F 88% 29.99 in 10.0 miles Calm Calm - N/A   Overcast
4:35 PM 68.0 °F 64.4 °F 88% 29.98 in 10.0 miles East 3.5 mph - N/A   Overcast
4:55 PM 68.0 °F 64.4 °F 88% 29.99 in 10.0 miles NE 3.5 mph - N/A   Mostly Cloudy
5:15 PM 68.0 °F 64.4 °F 88% 29.99 in 10.0 miles Calm Calm - N/A   Overcast
5:35 PM 68.0 °F 64.4 °F 88% 29.99 in 10.0 miles ESE 3.5 mph - N/A   Mostly Cloudy
5:55 PM 68.0 °F 64.4 °F 88% 29.99 in 10.0 miles Calm Calm - N/A   Overcast
6:15 PM 68.0 °F 64.4 °F 88% 30.00 in 10.0 miles Calm Calm - N/A   Overcast
6:35 PM 68.0 °F 66.2 °F 94% 29.99 in 10.0 miles Calm Calm - N/A   Overcast
6:55 PM 68.0 °F 66.2 °F 94% 29.99 in 10.0 miles Calm Calm - N/A   Scattered Clouds
7:15 PM 68.0 °F 66.2 °F 94% 29.99 in 10.0 miles SE 3.5 mph - N/A   Scattered Clouds
7:35 PM 68.0 °F 64.4 °F 88% 30.00 in 10.0 miles Calm Calm - N/A   Mostly Cloudy
7:55 PM 68.0 °F 66.2 °F 94% 30.00 in 10.0 miles Calm Calm - N/A   Mostly Cloudy
8:15 PM 66.2 °F 64.4 °F 94% 30.01 in 7.0 miles South 4.6 mph - N/A   Scattered Clouds
8:35 PM 68.0 °F 68.0 °F 100% 30.01 in 10.0 miles Calm Calm - N/A   Mostly Cloudy
8:55 PM 69.8 °F 68.0 °F 94% 30.01 in 10.0 miles Calm Calm - N/A   Overcast
9:15 PM 68.0 °F 66.2 °F 94% 30.01 in 7.0 miles Calm Calm - N/A   Overcast
9:35 PM 68.0 °F 68.0 °F 100% 30.02 in 10.0 miles Calm Calm - N/A   Overcast
9:55 PM 69.8 °F 68.0 °F 94% 30.02 in 10.0 miles Calm Calm - N/A   Overcast
10:15 PM 69.8 °F 68.0 °F 94% 30.03 in 10.0 miles Calm Calm - N/A   Overcast
10:35 PM 69.8 °F 68.0 °F 94% 30.02 in 10.0 miles Calm Calm - N/A   Overcast
10:55 PM 69.8 °F 68.0 °F 94% 30.01 in 7.0 miles Calm Calm - N/A   Overcast
11:15 PM 69.8 °F 68.0 °F 94% 30.01 in 7.0 miles Calm Calm - N/A   Overcast
11:35 PM 69.8 °F 68.0 °F 94% 30.01 in 7.0 miles Calm Calm - N/A   Overcast
11:55 PM 69.8 °F 68.0 °F 94% 30.02 in 7.0 miles Calm Calm - N/A   Overcast
ADVERTISEMENT
Enter city or zip code to search weather conditions:


  • 490 First Avenue South
  • St. Petersburg, FL 33701
  • 727-893-8111